| time (UTC) | temp C | wind direction | speed KPH | gust KPH | rain 1hr cm | rain 24hr cm | rain mn cm | humidity % | barometer mb |
| 20260503224521 | 7 | 180 | 0.0 | 0.0 | 0.00 | 0.00 | 0.00 | 73 | |
| 20260503224023 | 7 | 180 | 0.0 | 0.0 | 0.00 | 0.00 | 0.00 | 73 | |
| 20260503223522 | 6 | 180 | 0.0 | 0.0 | 0.00 | 0.00 | 0.00 | 73 | |
| 20260503222026 | 7 | 180 | 0.0 | 0.0 | 0.00 | 0.00 | 0.00 | 73 | |
| 20260503221528 | 6 | 180 | 0.0 | 0.0 | 0.00 | 0.00 | 0.00 | 73 | |
| 20260503221029 | 7 | 180 | 0.0 | 0.0 | 0.00 | 0.00 | 0.00 | 73 | |
| 20260503220528 | 7 | 180 | 0.0 | 0.0 | 0.00 | 0.00 | 0.00 | 73 | |
| 20260503220030 | 6 | 180 | 0.0 | 0.0 | 0.00 | 0.00 | 0.00 | 73 | |
| 20260503215532 | 6 | 180 | 0.0 | 0.0 | 0.00 | 0.00 | 0.00 | 73 | |
| 20260503215031 | 7 | 180 | 0.0 | 0.0 | 0.00 | 0.00 | 0.00 | 73 | |
| 20260503214533 | 6 | 180 | 0.0 | 0.0 | 0.00 | 0.00 | 0.00 | 72 | |
| 20260503214035 | 6 | 180 | 0.0 | 0.0 | 0.00 | 0.00 | 0.00 | 73 | |
| 20260503213534 | 6 | 180 | 0.0 | 0.0 | 0.00 | 0.00 | 0.00 | 73 | |
| 20260503213036 | 7 | 180 | 0.0 | 0.0 | 0.00 | 0.00 | 0.00 | 73 | |
| 20260503212037 | 7 | 180 | 0.0 | 0.0 | 0.00 | 0.00 | 0.00 | 73 | |
| 20260503211539 | 7 | 180 | 0.0 | 0.0 | 0.00 | 0.00 | 0.00 | 73 | |
| 20260503211041 | 7 | 180 | 0.0 | 0.0 | 0.00 | 0.00 | 0.00 | 73 | |
| 20260503210540 | 6 | 180 | 0.0 | 0.0 | 0.00 | 0.00 | 0.00 | 73 | |
| 20260503205544 | 6 | 180 | 0.0 | 0.0 | 0.00 | 0.00 | 0.00 | 73 | |
| 20260503205043 | 7 | 180 | 0.0 | 0.0 | 0.00 | 0.00 | 0.00 | 73 | |
| 20260503204545 | 6 | 180 | 0.0 | 0.0 | 0.00 | 0.00 | 0.00 | 72 | |
| 20260503203550 | 6 | 180 | 0.0 | 0.0 | 0.00 | 0.00 | 0.00 | 72 | |
| 20260503203048 | 6 | 180 | 0.0 | 0.0 | 0.00 | 0.00 | 0.00 | 72 | |
| 20260503202047 | 6 | 180 | 0.0 | 0.0 | 0.00 | 0.00 | 0.00 | 72 | |
| 20260503201549 | 6 | 180 | 0.0 | 0.0 | 0.00 | 0.00 | 0.00 | 71 | |
| 20260503194555 | 7 | 180 | 0.0 | 0.0 | 0.00 | 0.00 | 0.00 | 57 | |
| 20260503194057 | 8 | 180 | 0.0 | 0.0 | 0.00 | 0.00 | 0.00 | 53 | |
| 20260503193058 | 10 | 180 | 0.0 | 0.0 | 0.00 | 0.00 | 0.00 | 46 | |
| 20260503192600 | 10 | 180 | 0.0 | 0.0 | 0.00 | 0.00 | 0.00 | 41 | |
| 20260503192059 | 10 | 180 | 0.0 | 0.0 | 0.00 | 0.00 | 0.00 | 41 | |
| 20260503191601 | 10 | 180 | 0.0 | 0.0 | 0.00 | 0.00 | 0.00 | 40 | |
| 20260503191103 | 10 | 180 | 0.0 | 0.0 | 0.00 | 0.00 | 0.00 | 40 | |
| 20260503190602 | 10 | 180 | 0.0 | 0.0 | 0.00 | 0.00 | 0.00 | 39 | |
| 20260503190104 | 9 | 180 | 0.0 | 0.0 | 0.00 | 0.00 | 0.00 | 42 | |
| 20260503185606 | 10 | 180 | 0.0 | 0.0 | 0.00 | 0.00 | 0.00 | 41 | |
| 20260503185105 | 10 | 180 | 0.0 | 0.0 | 0.00 | 0.00 | 0.00 | 36 | |
| 20260503184607 | 10 | 180 | 0.0 | 0.0 | 0.00 | 0.00 | 0.00 | 32 | |
| 20260503184109 | 12 | 180 | 0.0 | 0.0 | 0.00 | 0.00 | 0.00 | 28 | |
| 20260503183608 | 12 | 180 | 0.0 | 0.0 | 0.00 | 0.00 | 0.00 | 26 | |
| 20260503183110 | 12 | 180 | 0.0 | 0.0 | 0.00 | 0.00 | 0.00 | 24 | |
| 20260503182612 | 12 | 180 | 0.0 | 0.0 | 0.00 | 0.00 | 0.00 | 25 | |
| 20260503182111 | 12 | 180 | 0.0 | 0.0 | 0.00 | 0.00 | 0.00 | 26 | |
| 20260503181613 | 11 | 180 | 0.0 | 0.0 | 0.00 | 0.00 | 0.00 | 24 | |
| 20260503181115 | 12 | 180 | 0.0 | 0.0 | 0.00 | 0.00 | 0.00 | 26 | |
| 20260503180614 | 11 | 180 | 0.0 | 0.0 | 0.00 | 0.00 | 0.00 | 30 | |
| 20260503175618 | 11 | 180 | 0.0 | 0.0 | 0.00 | 0.00 | 0.00 | 30 | |
| 20260503175117 | 11 | 180 | 0.0 | 0.0 | 0.00 | 0.00 | 0.00 | 30 | |
| 20260503174619 | 11 | 180 | 0.0 | 0.0 | 0.00 | 0.00 | 0.00 | 30 | |
| 20260503174121 | 12 | 180 | 0.0 | 0.0 | 0.00 | 0.00 | 0.00 | 30 | |
| 20260503173620 | 11 | 180 | 0.0 | 0.0 | 0.00 | 0.00 | 0.00 | 28 | |
| 20260503173122 | 11 | 180 | 0.0 | 0.0 | 0.00 | 0.00 | 0.00 | 28 | |
| 20260503172123 | 12 | 180 | 0.0 | 0.0 | 0.00 | 0.00 | 0.00 | 28 | |
| 20260503171625 | 11 | 180 | 0.0 | 0.0 | 0.00 | 0.00 | 0.00 | 31 | |
| 20260503171127 | 12 | 180 | 0.0 | 0.0 | 0.00 | 0.00 | 0.00 | 27 | |
| 20260503170128 | 12 | 180 | 0.0 | 0.0 | 0.00 | 0.00 | 0.00 | 25 | |
| 20260503160139 | 10 | 180 | 0.0 | 0.0 | 0.00 | 0.00 | 0.00 | 26 | |
| 20260503150649 | 8 | 180 | 0.0 | 0.0 | 0.00 | 0.00 | 0.00 | 30 | |
| 20260503150151 | 8 | 180 | 0.0 | 0.0 | 0.00 | 0.00 | 0.00 | 26 | |
| 20260503130713 | 4 | 180 | 0.0 | 0.0 | 0.00 | 0.00 | 0.00 | 54 | |
| 20260503110737 | -2 | 180 | 0.0 | 0.0 | 0.00 | 0.00 | 0.00 | 68 | |
| 20260503110239 | -1 | 180 | 0.0 | 0.0 | 0.00 | 0.00 | 0.00 | 67 | |
| 20260503100252 | -2 | 180 | 0.0 | 0.0 | 0.00 | 0.00 | 0.00 | 65 | |
| 20260503090304 | -1 | 180 | 0.0 | 0.0 | 0.00 | 0.00 | 0.00 | 63 | |
| 20260503080814 | -2 | 180 | 0.0 | 0.0 | 0.00 | 0.00 | 0.00 | 61 | |
| 20260503080316 | -1 | 180 | 0.0 | 0.0 | 0.00 | 0.00 | 0.00 | 61 | |
| 20260503072323 | -2 | 180 | 0.0 | 0.0 | 0.00 | 0.00 | 0.00 | 60 | |
| 20260503071327 | -1 | 180 | 0.0 | 0.0 | 0.00 | 0.00 | 0.00 | 59 | |
| 20260503070826 | -1 | 180 | 0.0 | 0.0 | 0.00 | 0.00 | 0.00 | 59 | |
| 20260503070328 | -1 | 180 | 0.0 | 0.0 | 0.00 | 0.00 | 0.00 | 59 | |
| 20260503053844 | -1 | 180 | 0.0 | 0.0 | 0.00 | 0.00 | 0.00 | 55 | |
| 20260503052848 | -2 | 180 | 0.0 | 0.0 | 0.00 | 0.00 | 0.00 | 54 | |
| 20260503052347 | -1 | 180 | 0.0 | 0.0 | 0.00 | 0.00 | 0.00 | 53 | |
| 20260503051849 | -2 | 180 | 0.0 | 0.0 | 0.00 | 0.00 | 0.00 | 53 | |
| 20260503051351 | -2 | 180 | 0.0 | 0.0 | 0.00 | 0.00 | 0.00 | 53 | |
| 20260503050350 | -1 | 180 | 0.0 | 0.0 | 0.00 | 0.00 | 0.00 | 53 | |
| 20260503045852 | -1 | 180 | 0.0 | 0.0 | 0.00 | 0.00 | 0.00 | 53 | |
| 20260503045352 | -1 | 180 | 0.0 | 0.0 | 0.00 | 0.00 | 0.00 | 53 | |
| 20260503044853 | -1 | 180 | 0.0 | 0.0 | 0.00 | 0.00 | 0.00 | 53 | |
| 20260503044355 | -1 | 180 | 0.0 | 0.0 | 0.00 | 0.00 | 0.00 | 52 | |
| 20260503043855 | -1 | 180 | 0.0 | 0.0 | 0.00 | 0.00 | 0.00 | 51 | |
| 20260503041900 | -1 | 180 | 0.0 | 0.0 | 0.00 | 0.00 | 0.00 | 51 | |
| 20260503040901 | 0 | 180 | 0.0 | 0.0 | 0.00 | 0.00 | 0.00 | 50 | |
| 20260503040403 | 0 | 180 | 0.0 | 0.0 | 0.00 | 0.00 | 0.00 | 50 | |
| 20260503035905 | 0 | 180 | 0.0 | 0.0 | 0.00 | 0.00 | 0.00 | 49 | |
| 20260503035404 | 0 | 180 | 0.0 | 0.0 | 0.00 | 0.00 | 0.00 | 48 | |
| 20260503034906 | 0 | 180 | 0.0 | 0.0 | 0.00 | 0.00 | 0.00 | 48 | |
| 20260503033907 | 0 | 180 | 0.0 | 0.0 | 0.00 | 0.00 | 0.00 | 47 | |
| 20260503032911 | 0 | 180 | 0.0 | 0.0 | 0.00 | 0.00 | 0.00 | 47 | |
| 20260503031912 | 0 | 180 | 0.0 | 0.0 | 0.00 | 0.00 | 0.00 | 47 | |
| 20260503030913 | 0 | 180 | 0.0 | 0.0 | 0.00 | 0.00 | 0.00 | 46 | |
| 20260503030415 | 0 | 180 | 0.0 | 0.0 | 0.00 | 0.00 | 0.00 | 46 | |
| 20260503025917 | 0 | 180 | 0.0 | 0.0 | 0.00 | 0.00 | 0.00 | 46 | |
| 20260503024918 | 0 | 180 | 0.0 | 0.0 | 0.00 | 0.00 | 0.00 | 45 | |
| 20260503024420 | 0 | 180 | 0.0 | 0.0 | 0.00 | 0.00 | 0.00 | 45 | |
| 20260503023919 | 1 | 180 | 0.0 | 0.0 | 0.00 | 0.00 | 0.00 | 44 | |
| 20260503023421 | 1 | 180 | 0.0 | 0.0 | 0.00 | 0.00 | 0.00 | 43 | |
| 20260503022422 | 0 | 180 | 0.0 | 0.0 | 0.00 | 0.00 | 0.00 | 43 | |
| 20260503021924 | 1 | 180 | 0.0 | 0.0 | 0.00 | 0.00 | 0.00 | 43 | |
| 20260503021426 | 1 | 180 | 0.0 | 0.0 | 0.00 | 0.00 | 0.00 | 42 | |
| 20260503020925 | 0 | 180 | 0.0 | 0.0 | 0.00 | 0.00 | 0.00 | 41 | |
| 20260503020427 | 0 | 180 | 0.0 | 0.0 | 0.00 | 0.00 | 0.00 | 41 | |
| 20260503015428 | 0 | 180 | 0.0 | 0.0 | 0.00 | 0.00 | 0.00 | 41 | |
| 20260503014930 | 1 | 180 | 0.0 | 0.0 | 0.00 | 0.00 | 0.00 | 41 | |
| 20260503014432 | 1 | 180 | 0.0 | 0.0 | 0.00 | 0.00 | 0.00 | 41 | |
| 20260503013931 | 1 | 180 | 0.0 | 0.0 | 0.00 | 0.00 | 0.00 | 40 | |
| 20260503013433 | 1 | 180 | 0.0 | 0.0 | 0.00 | 0.00 | 0.00 | 40 | |
| 20260503012935 | 1 | 180 | 0.0 | 0.0 | 0.00 | 0.00 | 0.00 | 40 | |
| 20260503012434 | 1 | 180 | 0.0 | 0.0 | 0.00 | 0.00 | 0.00 | 39 | |
| 20260503011936 | 1 | 180 | 0.0 | 0.0 | 0.00 | 0.00 | 0.00 | 40 | |
| 20260503011438 | 1 | 180 | 0.0 | 0.0 | 0.00 | 0.00 | 0.00 | 40 | |
| 20260503010937 | 1 | 180 | 0.0 | 0.0 | 0.00 | 0.00 | 0.00 | 40 | |
| 20260503010439 | 1 | 180 | 0.0 | 0.0 | 0.00 | 0.00 | 0.00 | 39 | |
| 20260503005440 | 2 | 180 | 0.0 | 0.0 | 0.00 | 0.00 | 0.00 | 40 | |
| 20260503004943 | 1 | 180 | 0.0 | 0.0 | 0.00 | 0.00 | 0.00 | 40 | |
| 20260503004445 | 2 | 180 | 0.0 | 0.0 | 0.00 | 0.00 | 0.00 | 39 | |
| 20260503003944 | 1 | 180 | 0.0 | 0.0 | 0.00 | 0.00 | 0.00 | 38 | |
| 20260503003446 | 2 | 180 | 0.0 | 0.0 | 0.00 | 0.00 | 0.00 | 38 | |
| 20260503002948 | 2 | 180 | 0.0 | 0.0 | 0.00 | 0.00 | 0.00 | 36 | |
| 20260503002447 | 2 | 180 | 0.0 | 0.0 | 0.00 | 0.00 | 0.00 | 35 | |
| 20260503001949 | 3 | 180 | 0.0 | 0.0 | 0.00 | 0.00 | 0.00 | 33 | |
| 20260503001451 | 3 | 180 | 0.0 | 0.0 | 0.00 | 0.00 | 0.00 | 31 | |
| 20260503000950 | 3 | 180 | 0.0 | 0.0 | 0.00 | 0.00 | 0.00 | 29 | |
| 20260503000452 | 4 | 180 | 0.0 | 0.0 | 0.00 | 0.00 | 0.00 | 27 | |
| 20260502235954 | 3 | 180 | 0.0 | 0.0 | 0.00 | 0.00 | 0.00 | 27 | |
| 20260502235453 | 4 | 180 | 0.0 | 0.0 | 0.00 | 0.00 | 0.00 | 27 | |
| 20260502234955 | 4 | 180 | 0.0 | 0.0 | 0.00 | 0.00 | 0.00 | 26 | |
| 20260502234457 | 5 | 180 | 0.0 | 0.0 | 0.00 | 0.00 | 0.00 | 25 | |
| 20260502233956 | 5 | 180 | 0.0 | 0.0 | 0.00 | 0.00 | 0.00 | 22 | |
| 20260502233458 | 5 | 180 | 0.0 | 0.0 | 0.00 | 0.00 | 0.00 | 22 | |
| 20260502233000 | 5 | 180 | 0.0 | 0.0 | 0.00 | 0.00 | 0.00 | 21 | |
| 20260502232459 | 4 | 180 | 0.0 | 0.0 | 0.00 | 0.00 | 0.00 | 23 | |
| 20260502232001 | 5 | 180 | 0.0 | 0.0 | 0.00 | 0.00 | 0.00 | 22 | |
| 20260502231503 | 5 | 180 | 0.0 | 0.0 | 0.00 | 0.00 | 0.00 | 22 | |
| 20260502231002 | 5 | 180 | 0.0 | 0.0 | 0.00 | 0.00 | 0.00 | 20 | |
| 20260502230504 | 5 | 180 | 0.0 | 0.0 | 0.00 | 0.00 | 0.00 | 21 | |
| 20260502230006 | 5 | 180 | 0.0 | 0.0 | 0.00 | 0.00 | 0.00 | 23 | |
| 20260502225505 | 5 | 180 | 0.0 | 0.0 | 0.00 | 0.00 | 0.00 | 22 | |
| 20260502225007 | 5 | 180 | 0.0 | 0.0 | 0.00 | 0.00 | 0.00 | 25 |